This is the latest recevied weather packets stored in our database for station/object KB1RMA-4. If no packets are shown the sender has not sent any weather packets the latest 10 day(s).
| Time | Temp. | Humidity | Pressure | Rain* | Wind** | Luminosity | Snow |
|---|---|---|---|---|---|---|---|
| 1788631885 | 21.67° C | 66% | 1010.9 hPa | 0 mm | - | 363 W/m² | - |
| 1788631580 | 21.11° C | 68% | 1011.2 hPa | 0 mm | - | 367 W/m² | - |
| 1788631275 | 21.11° C | 68% | 1011.2 hPa | 0 mm | - | 679 W/m² | - |
| 1788630974 | 21.11° C | 68% | 1011.2 hPa | 0 mm | - | 389 W/m² | - |
| 1788630669 | 20.56° C | 70% | 1010.9 hPa | 0 mm | - | 655 W/m² | - |
| 1788630365 | 20° C | 70% | 1011 hPa | 0 mm | - | 344 W/m² | - |
| 1788630060 | 20° C | 70% | 1011 hPa | 0 mm | - | 275 W/m² | - |
| 1788629757 | 20° C | 70% | 1011 hPa | 0 mm | - | 294 W/m² | - |
| 1788629452 | 20° C | 71% | 1011 hPa | 0 mm | - | 215 W/m² | - |
| 1788629150 | 19.44° C | 70% | 1011.2 hPa | 0 mm | - | 211 W/m² | - |
| 1788628846 | 19.44° C | 71% | 1011.2 hPa | 0 mm | - | 366 W/m² | - |
| 1788628543 | 19.44° C | 71% | 1011.2 hPa | 0 mm | - | 212 W/m² | - |
| 1788628238 | 19.44° C | 71% | 1011.3 hPa | 0 mm | - | 220 W/m² | - |
| 1788627935 | 19.44° C | 71% | 1011.2 hPa | 0 mm | - | 255 W/m² | - |
| 1788627630 | 18.89° C | 73% | 1011 hPa | 0 mm | - | 255 W/m² | - |
| 1788627325 | 18.89° C | 74% | 1011.1 hPa | 0 mm | - | 331 W/m² | - |
| 1788627020 | 18.89° C | 75% | 1010.8 hPa | 0 mm | - | 284 W/m² | - |
| 1788626720 | 18.33° C | 76% | 1011.2 hPa | 0 mm | - | 213 W/m² | - |
| 1788626415 | 18.33° C | 76% | 1010.9 hPa | 0 mm | - | 119 W/m² | - |
| 1788626111 | 18.33° C | 75% | 1011 hPa | 0 mm | - | 84 W/m² | - |
| 1788625807 | 18.89° C | 75% | 1011 hPa | 0 mm | - | 70 W/m² | - |
| 1788625502 | 19.44° C | 74% | 1011.1 hPa | 0 mm | - | 78 W/m² | - |
| 1788625197 | 20° C | 73% | 1011.1 hPa | 0 mm | - | 94 W/m² | - |
| 1788624896 | 20° C | 71% | 1010.9 hPa | 0 mm | - | 138 W/m² | - |
| 1788624595 | 20.56° C | 70% | 1010.8 hPa | 0 mm | - | 217 W/m² | - |
* Rain latest hour (hover to see other rain measurements)
** Current wind speed in m/s (hover to see current wind gust speed)